This is the latest recevied weather packets stored in our database for station/object DL2AMT-9. If no packets are shown the sender has not sent any weather packets the latest 10 day(s).
| Time | Temp. | Humidity | Pressure | Rain* | Wind** | Luminosity | Snow |
|---|---|---|---|---|---|---|---|
| 1777805227 | 30.56° C | 31% | 969.4 hPa | - | - | - | - |
| 1777804927 | 30.56° C | 30% | 969.4 hPa | - | - | - | - |
| 1777804627 | 31.11° C | 30% | 969.4 hPa | - | - | - | - |
| 1777804327 | 31.67° C | 30% | 969.4 hPa | - | - | - | - |
| 1777804027 | 32.22° C | 30% | 969.4 hPa | - | - | - | - |
| 1777803727 | 32.78° C | 29% | 969.5 hPa | - | - | - | - |
| 1777803427 | 33.33° C | 30% | 969.6 hPa | - | - | - | - |
| 1777803127 | 33.89° C | 30% | 969.7 hPa | - | - | - | - |
| 1777802827 | 33.89° C | 30% | 969.8 hPa | - | - | - | - |
| 1777802527 | 34.44° C | 31% | 969.7 hPa | - | - | - | - |
| 1777802227 | 34.44° C | 31% | 969.8 hPa | - | - | - | - |
| 1777801927 | 34.44° C | 31% | 969.7 hPa | - | - | - | - |
| 1777801627 | 34.44° C | 32% | 969.9 hPa | - | - | - | - |
| 1777801327 | 33.33° C | 33% | 969.8 hPa | - | - | - | - |
| 1777801027 | 30.56° C | 34% | 969.8 hPa | - | - | - | - |
| 1777800727 | 30.56° C | 34% | 969.9 hPa | - | - | - | - |
| 1777800427 | 30.56° C | 34% | 970.1 hPa | - | - | - | - |
| 1777800127 | 31.11° C | 35% | 970 hPa | - | - | - | - |
| 1777799827 | 31.11° C | 36% | 970.1 hPa | - | - | - | - |
| 1777799527 | 30.56° C | 34% | 970.1 hPa | - | - | - | - |
| 1777799226 | 31.11° C | 34% | 970.1 hPa | - | - | - | - |
| 1777798926 | 31.67° C | 35% | 970 hPa | - | - | - | - |
| 1777798068 | 34.44° C | 34% | 970.1 hPa | - | - | - | - |
| 1777797768 | 32.22° C | 36% | 970.1 hPa | - | - | - | - |
| 1777797468 | 32.22° C | 36% | 970.1 hPa | - | - | - | - |
* Rain since midnight (hover to see other rain measurements)
** Current wind speed in m/s (hover to see current wind gust speed)